Regional Weather Roundup
Issued by NWS Goodland, KS

Home | Current Version | Previous Version | Text Only | Print | Product List | Glossary On
Versions: 1 2 3 4 5 6 7 8 9 10 11 12 13 14 15 16 17 18 19 20 21 22 23 24 25 26 27 28 29 30 31 32 33 34 35 36 37 38 39 40 41 42 43 44 45 46 47 48 49 50
000
ASUS43 KGLD 170708
RWRGLD

GOODLAND FORECAST AREA HOURLY WEATHER ROUNDUP
NATIONAL WEATHER SERVICE GOODLAND KS
1200 AM MST TUE JAN 17 2017

...OFFICIAL OBSERVATIONS...

CITY           SKY/WX    TMP DP  RH WIND       PRES   REMARKS
GOODLAND KS    CLOUDY    25  22  88 W9        30.09R
HILL CITY KS   PTCLDY    33  28  81 NW12      30.07S
IMPERIAL NEB   CLEAR     28  21  75 W7        30.08R
MCCOOK NEB     CLEAR     30  24  78 W8        30.07S
AKRON CO       CLOUDY    19  13  77 W8        30.08S
BURLINGTON CO  CLOUDY    26  21  81 W10       30.09S WCI  16
LIMON CO       CLOUDY    29  22  75 NW5       30.09F
$$

...UNOFFICIAL OBSERVATIONS...

CITY           SKY/WX    TMP DP  RH WIND       PRES   REMARKS
LENORA KS        N/A     30  32 100 NW7         N/A
NORTON KS      CLEAR     28  23  80 W7        30.06S
SHARON SPRINGS   N/A     32  29  88 W8          N/A
TRENTON NEB      N/A     29  32 100 NW6         N/A
KIT CARSON CO    N/A     30  24  77 CALM        N/A
YUMA CO        FAIR      19  14  79 W9        30.09S
$$




USA.gov is the U.S. government's official web portal to all federal, state and local government web resources and services.